TimeCDT,TemperatureF,Dew PointF,Humidity,Sea Level PressureIn,VisibilityMPH,Wind Direction,Wind SpeedMPH,Gust SpeedMPH,PrecipitationIn,Events,Conditions,WindDirDegrees,DateUTC
12:15 AM,33.8,23.0,65,30.33,10.0,North,8.1,-,N/A,,Clear,10,2013-04-03 05:15:00
12:35 AM,35.2,22.8,61,30.33,10.0,North,8.1,-,N/A,,Clear,10,2013-04-03 05:35:00
12:55 AM,34.0,22.5,63,30.34,10.0,North,8.1,-,N/A,,Clear,360,2013-04-03 05:55:00
1:15 AM,34.2,22.5,62,30.34,10.0,North,8.1,-,N/A,,Clear,360,2013-04-03 06:15:00
1:35 AM,32.5,22.1,65,30.35,10.0,North,4.6,-,N/A,,Clear,360,2013-04-03 06:35:00
1:55 AM,32.0,21.7,66,30.36,10.0,North,4.6,-,N/A,,Clear,360,2013-04-03 06:55:00
2:15 AM,31.8,21.6,66,30.35,10.0,North,3.5,-,N/A,,Clear,10,2013-04-03 07:15:00
2:35 AM,32.0,21.2,64,30.34,10.0,North,4.6,-,N/A,,Clear,360,2013-04-03 07:35:00
2:55 AM,32.0,21.2,64,30.33,10.0,North,4.6,-,N/A,,Clear,360,2013-04-03 07:55:00
3:15 AM,31.1,21.0,66,30.34,10.0,North,4.6,-,N/A,,Clear,360,2013-04-03 08:15:00
3:35 AM,31.1,21.6,68,30.34,10.0,North,3.5,-,N/A,,Clear,350,2013-04-03 08:35:00
3:55 AM,30.6,21.2,68,30.35,10.0,North,4.6,-,N/A,,Clear,350,2013-04-03 08:55:00
4:15 AM,28.9,20.3,70,30.35,10.0,North,6.9,-,N/A,,Clear,360,2013-04-03 09:15:00
4:35 AM,28.0,20.3,73,30.35,10.0,North,5.8,-,N/A,,Clear,360,2013-04-03 09:35:00
4:55 AM,29.1,20.5,70,30.35,10.0,North,5.8,-,N/A,,Clear,360,2013-04-03 09:55:00
5:15 AM,27.9,19.9,72,30.35,10.0,North,5.8,-,N/A,,Clear,360,2013-04-03 10:15:00
5:35 AM,28.8,20.1,70,30.35,10.0,North,6.9,-,N/A,,Clear,10,2013-04-03 10:35:00
5:55 AM,28.4,20.3,72,30.36,10.0,North,6.9,-,N/A,,Clear,10,2013-04-03 10:55:00
6:15 AM,28.9,20.3,70,30.36,10.0,North,5.8,-,N/A,,Clear,360,2013-04-03 11:15:00
6:35 AM,28.2,19.8,71,30.38,10.0,North,5.8,-,N/A,,Clear,360,2013-04-03 11:35:00
6:55 AM,27.5,19.9,73,30.39,10.0,North,5.8,-,N/A,,Clear,10,2013-04-03 11:55:00
7:15 AM,28.4,21.4,75,30.40,10.0,North,4.6,-,N/A,,Clear,360,2013-04-03 12:15:00
7:35 AM,31.3,22.6,70,30.40,10.0,North,5.8,-,N/A,,Clear,10,2013-04-03 12:35:00
7:55 AM,32.4,22.8,68,30.42,10.0,NNE,5.8,-,N/A,,Clear,30,2013-04-03 12:55:00
8:15 AM,33.3,23.0,66,30.42,10.0,NNE,9.2,-,N/A,,Clear,30,2013-04-03 13:15:00
8:35 AM,34.7,23.5,64,30.42,10.0,NNE,9.2,-,N/A,,Clear,30,2013-04-03 13:35:00
8:55 AM,36.5,23.7,60,30.42,10.0,NE,9.2,-,N/A,,Clear,40,2013-04-03 13:55:00
9:15 AM,37.8,23.5,57,30.43,10.0,NE,9.2,-,N/A,,Clear,40,2013-04-03 14:15:00
9:35 AM,39.2,23.5,53,30.43,10.0,NE,9.2,-,N/A,,Clear,50,2013-04-03 14:35:00
9:55 AM,40.8,23.2,50,30.42,10.0,ENE,11.5,-,N/A,,Clear,60,2013-04-03 14:55:00
10:15 AM,42.3,22.6,46,30.42,10.0,ENE,10.4,-,N/A,,Clear,60,2013-04-03 15:15:00
10:35 AM,43.3,21.4,42,30.42,10.0,NE,8.1,-,N/A,,Clear,50,2013-04-03 15:35:00
10:55 AM,44.1,20.1,39,30.42,10.0,NE,10.4,-,N/A,,Clear,50,2013-04-03 15:55:00
11:15 AM,44.4,19.8,37,30.42,10.0,NE,8.1,16.1,N/A,,Clear,50,2013-04-03 16:15:00
11:35 AM,46.0,21.0,37,30.43,10.0,ENE,10.4,-,N/A,,Clear,60,2013-04-03 16:35:00
11:55 AM,46.6,21.4,37,30.41,10.0,East,11.5,17.3,N/A,,Clear,90,2013-04-03 16:55:00
12:15 PM,47.7,21.7,36,30.40,10.0,ESE,9.2,19.6,N/A,,Clear,110,2013-04-03 17:15:00
12:35 PM,47.5,20.7,35,30.39,10.0,ESE,10.4,19.6,N/A,,Clear,110,2013-04-03 17:35:00
12:55 PM,48.9,21.9,35,30.38,10.0,East,12.7,18.4,N/A,,Clear,100,2013-04-03 17:55:00
1:15 PM,49.3,21.4,33,30.37,10.0,ESE,9.2,18.4,N/A,,Clear,120,2013-04-03 18:15:00
1:35 PM,49.8,21.6,33,30.36,10.0,East,12.7,16.1,N/A,,Clear,90,2013-04-03 18:35:00
1:55 PM,50.4,21.7,33,30.35,10.0,East,8.1,16.1,N/A,,Clear,90,2013-04-03 18:55:00
2:15 PM,51.1,22.1,32,30.35,10.0,East,8.1,-,N/A,,Clear,100,2013-04-03 19:15:00
2:35 PM,51.8,21.4,30,30.35,10.0,East,10.4,18.4,N/A,,Clear,100,2013-04-03 19:35:00
2:55 PM,52.3,21.9,30,30.34,10.0,East,9.2,17.3,N/A,,Clear,100,2013-04-03 19:55:00
3:15 PM,52.2,21.6,30,30.34,10.0,ESE,6.9,18.4,N/A,,Clear,120,2013-04-03 20:15:00
3:35 PM,52.9,22.8,31,30.33,10.0,East,11.5,19.6,N/A,,Clear,100,2013-04-03 20:35:00
3:55 PM,51.8,20.8,30,30.33,10.0,ENE,12.7,17.3,N/A,,Clear,70,2013-04-03 20:55:00
4:15 PM,52.3,21.7,30,30.33,10.0,ESE,11.5,20.7,N/A,,Clear,120,2013-04-03 21:15:00
4:35 PM,53.8,22.6,30,30.33,10.0,East,9.2,21.9,N/A,,Clear,100,2013-04-03 21:35:00
4:55 PM,53.6,21.2,28,30.32,10.0,East,9.2,-,N/A,,Clear,80,2013-04-03 21:55:00
5:15 PM,52.9,21.4,29,30.31,10.0,East,11.5,16.1,N/A,,Clear,90,2013-04-03 22:15:00
5:35 PM,52.3,22.1,31,30.31,10.0,ESE,8.1,-,N/A,,Clear,120,2013-04-03 22:35:00
5:55 PM,52.5,21.9,30,30.31,10.0,ESE,10.4,-,N/A,,Clear,110,2013-04-03 22:55:00
6:15 PM,51.8,22.5,32,30.30,10.0,East,12.7,-,N/A,,Clear,100,2013-04-03 23:15:00
6:35 PM,50.4,21.7,33,30.30,10.0,ESE,9.2,-,N/A,,Clear,120,2013-04-03 23:35:00
6:55 PM,49.1,24.1,38,30.31,10.0,ESE,6.9,-,N/A,,Clear,120,2013-04-03 23:55:00
7:15 PM,47.5,24.8,41,30.30,10.0,ESE,5.8,-,N/A,,Clear,120,2013-04-04 00:15:00
7:35 PM,46.0,25.0,44,30.30,10.0,ESE,6.9,-,N/A,,Clear,120,2013-04-04 00:35:00
7:55 PM,45.7,25.2,45,30.30,10.0,SE,4.6,-,N/A,,Clear,130,2013-04-04 00:55:00
8:15 PM,45.5,25.9,46,30.30,10.0,SE,4.6,-,N/A,,Clear,130,2013-04-04 01:15:00
8:35 PM,44.8,25.3,47,30.30,10.0,SE,4.6,-,N/A,,Clear,130,2013-04-04 01:35:00
8:55 PM,44.6,25.9,48,30.30,10.0,SE,4.6,-,N/A,,Clear,130,2013-04-04 01:55:00
9:15 PM,43.0,26.8,53,30.30,10.0,ESE,4.6,-,N/A,,Clear,110,2013-04-04 02:15:00
9:35 PM,42.6,26.4,53,30.30,10.0,ESE,3.5,-,N/A,,Clear,110,2013-04-04 02:35:00
9:55 PM,40.1,26.6,59,30.30,10.0,Calm,Calm,-,N/A,,Clear,0,2013-04-04 02:55:00
10:15 PM,39.9,27.1,60,30.30,10.0,East,3.5,-,N/A,,Clear,80,2013-04-04 03:15:00
10:35 PM,39.2,27.3,62,30.30,10.0,East,5.8,-,N/A,,Clear,80,2013-04-04 03:35:00
10:55 PM,39.2,26.8,61,30.30,10.0,ENE,5.8,-,N/A,,Clear,60,2013-04-04 03:55:00
11:15 PM,38.1,27.0,64,30.29,10.0,East,5.8,-,N/A,,Clear,80,2013-04-04 04:15:00
11:35 PM,36.5,27.0,68,30.29,10.0,East,6.9,-,N/A,,Clear,90,2013-04-04 04:35:00
11:55 PM,37.0,26.8,66,30.28,10.0,East,5.8,-,N/A,,Clear,100,2013-04-04 04:55:00